| time (UTC) | temp F | wind direction | speed MPH | gust MPH | rain 1hr in | rain 24hr in | rain mn in | humidity % | barometer mb |
| 20260507124706 | 60 | 213 | 2.0 | 4.0 | 0.02 | 0.02 | 0.02 | 77 | 1011.3 |
| 20260507124238 | 60 | 233 | 2.0 | 4.0 | 0.02 | 0.02 | 0.02 | 77 | 1011.3 |
| 20260507123715 | 60 | 236 | 1.0 | 7.0 | 0.02 | 0.02 | 0.02 | 77 | 1011.4 |
| 20260507123210 | 60 | 219 | 2.0 | 9.0 | 0.02 | 0.02 | 0.02 | 77 | 1011.4 |
| 20260507122231 | 60 | 255 | 6.0 | 11.0 | 0.01 | 0.01 | 0.01 | 76 | 1011.4 |
| 20260507121717 | 60 | 251 | 8.0 | 11.0 | 0.01 | 0.01 | 0.01 | 75 | 1011.5 |
| 20260507121211 | 61 | 238 | 8.0 | 11.0 | 0.00 | 0.00 | 0.00 | 74 | 1011.5 |
| 20260507120719 | 62 | 238 | 8.0 | 11.0 | 0.00 | 0.00 | 0.00 | 73 | 1011.4 |
| 20260507120213 | 62 | 246 | 7.0 | 11.0 | 0.00 | 0.00 | 0.00 | 70 | 1011.4 |
| 20260507115713 | 63 | 246 | 5.0 | 9.0 | 0.00 | 0.00 | 0.00 | 68 | 1011.4 |
| 20260507114715 | 64 | 288 | 4.0 | 8.0 | 0.00 | 0.00 | 0.00 | 62 | 1011.3 |
| 20260507114212 | 64 | 315 | 3.0 | 8.0 | 0.00 | 0.00 | 0.00 | 62 | 1011.2 |
| 20260507113717 | 64 | 319 | 4.0 | 9.0 | 0.00 | 0.00 | 0.00 | 59 | 1011.1 |
| 20260507113218 | 64 | 5 | 5.0 | 9.0 | 0.00 | 0.00 | 0.00 | 57 | 1011.2 |
| 20260507112711 | 64 | 31 | 6.0 | 11.0 | 0.00 | 0.00 | 0.00 | 57 | 1011.1 |
| 20260507112207 | 65 | 323 | 5.0 | 11.0 | 0.00 | 0.00 | 0.00 | 58 | 1011.1 |
| 20260507111215 | 65 | 338 | 4.0 | 10.0 | 0.00 | 0.00 | 0.00 | 54 | 1011.1 |
| 20260507110709 | 65 | 17 | 4.0 | 11.0 | 0.00 | 0.00 | 0.00 | 53 | 1011.1 |
| 20260507105720 | 66 | 0 | 6.0 | 11.0 | 0.00 | 0.00 | 0.00 | 53 | 1011.2 |
| 20260507105217 | 66 | 337 | 4.0 | 11.0 | 0.00 | 0.00 | 0.00 | 53 | 1011.2 |
| 20260507104706 | 66 | 24 | 3.0 | 8.0 | 0.00 | 0.00 | 0.00 | 53 | 1011.2 |
| 20260507104210 | 66 | 53 | 3.0 | 9.0 | 0.00 | 0.00 | 0.00 | 54 | 1011.2 |
| 20260507103713 | 65 | 14 | 4.0 | 9.0 | 0.00 | 0.00 | 0.00 | 53 | 1011.2 |
| 20260507103216 | 65 | 22 | 4.0 | 9.0 | 0.00 | 0.00 | 0.00 | 54 | 1011.3 |
| 20260507102208 | 64 | 80 | 3.0 | 8.0 | 0.00 | 0.00 | 0.00 | 55 | 1011.5 |
| 20260507101718 | 64 | 86 | 4.0 | 8.0 | 0.00 | 0.00 | 0.00 | 56 | 1011.6 |
| 20260507101210 | 64 | 96 | 4.0 | 9.0 | 0.00 | 0.00 | 0.00 | 55 | 1011.5 |
| 20260507100710 | 64 | 114 | 4.0 | 9.0 | 0.00 | 0.00 | 0.00 | 57 | 1011.6 |
| 20260507100213 | 64 | 96 | 5.0 | 9.0 | 0.00 | 0.00 | 0.00 | 58 | 1011.6 |
| 20260507095719 | 63 | 88 | 5.0 | 9.0 | 0.00 | 0.00 | 0.00 | 58 | 1011.5 |
| 20260507095215 | 63 | 79 | 6.0 | 9.0 | 0.00 | 0.00 | 0.00 | 59 | 1011.4 |
| 20260507094713 | 63 | 78 | 5.0 | 9.0 | 0.00 | 0.00 | 0.00 | 60 | 1011.4 |
| 20260507094216 | 63 | 108 | 5.0 | 11.0 | 0.00 | 0.00 | 0.00 | 61 | 1011.4 |
| 20260507093709 | 63 | 85 | 6.0 | 11.0 | 0.00 | 0.00 | 0.00 | 60 | 1011.4 |
| 20260507093209 | 63 | 113 | 7.0 | 11.0 | 0.00 | 0.00 | 0.00 | 60 | 1011.4 |
| 20260507092707 | 63 | 108 | 7.0 | 11.0 | 0.00 | 0.00 | 0.00 | 62 | 1011.4 |
| 20260507092207 | 63 | 109 | 7.0 | 12.0 | 0.00 | 0.00 | 0.00 | 63 | 1011.3 |
| 20260507091715 | 63 | 100 | 7.0 | 12.0 | 0.00 | 0.00 | 0.00 | 64 | 1011.3 |
| 20260507090712 | 63 | 130 | 7.0 | 11.0 | 0.00 | 0.00 | 0.00 | 64 | 1011.4 |
| 20260507090206 | 63 | 138 | 7.0 | 11.0 | 0.00 | 0.00 | 0.00 | 62 | 1011.3 |
| 20260507085720 | 63 | 128 | 6.0 | 11.0 | 0.00 | 0.00 | 0.00 | 61 | 1011.2 |
| 20260507085212 | 63 | 142 | 4.0 | 11.0 | 0.00 | 0.00 | 0.00 | 61 | 1011.1 |
| 20260507084209 | 63 | 162 | 5.0 | 10.0 | 0.00 | 0.00 | 0.00 | 60 | 1011.1 |
| 20260507083717 | 63 | 157 | 5.0 | 8.0 | 0.00 | 0.00 | 0.00 | 61 | 1011.0 |
| 20260507083213 | 62 | 150 | 3.0 | 10.0 | 0.00 | 0.00 | 0.00 | 57 | 1010.9 |
| 20260507082719 | 62 | 283 | 2.0 | 12.0 | 0.00 | 0.00 | 0.00 | 56 | 1010.9 |
| 20260507082218 | 62 | 262 | 4.0 | 13.0 | 0.00 | 0.00 | 0.00 | 56 | 1010.7 |
| 20260507081217 | 62 | 162 | 7.0 | 13.0 | 0.00 | 0.00 | 0.00 | 62 | 1010.6 |
| 20260507080718 | 63 | 225 | 7.0 | 10.0 | 0.00 | 0.00 | 0.00 | 55 | 1010.4 |
| 20260507080217 | 63 | 250 | 6.0 | 10.0 | 0.00 | 0.00 | 0.00 | 53 | 1010.4 |
| 20260507075206 | 62 | 267 | 7.0 | 10.0 | 0.00 | 0.00 | 0.00 | 53 | 1010.4 |
| 20260507074716 | 62 | 258 | 6.0 | 10.0 | 0.00 | 0.00 | 0.00 | 52 | 1010.4 |
| 20260507074205 | 62 | 294 | 5.0 | 9.0 | 0.00 | 0.00 | 0.00 | 54 | 1010.4 |
| 20260507073714 | 62 | 261 | 4.0 | 9.0 | 0.00 | 0.00 | 0.00 | 53 | 1010.4 |
| 20260507073221 | 62 | 290 | 4.0 | 10.0 | 0.00 | 0.00 | 0.00 | 54 | 1010.4 |
| 20260507071715 | 62 | 254 | 4.0 | 6.0 | 0.00 | 0.00 | 0.00 | 53 | 1010.2 |
| 20260507071212 | 62 | 248 | 2.0 | 4.0 | 0.00 | 0.00 | 0.00 | 53 | 1010.0 |
| 20260507070710 | 62 | 255 | 1.0 | 3.0 | 0.00 | 0.00 | 0.00 | 54 | 1010.0 |
| 20260507070210 | 62 | 308 | 2.0 | 4.0 | 0.00 | 0.00 | 0.00 | 54 | 1010.0 |
| 20260507065714 | 62 | 235 | 2.0 | 6.0 | 0.00 | 0.00 | 0.00 | 54 | 1009.9 |
| 20260507065210 | 61 | 246 | 2.0 | 7.0 | 0.00 | 0.00 | 0.00 | 54 | 1010.0 |
| 20260507064713 | 61 | 246 | 3.0 | 7.0 | 0.00 | 0.00 | 0.00 | 54 | 1009.9 |
| 20260507064213 | 61 | 253 | 4.0 | 7.0 | 0.00 | 0.00 | 0.00 | 54 | 1009.9 |
| 20260507063711 | 61 | 252 | 4.0 | 7.0 | 0.00 | 0.00 | 0.00 | 56 | 1010.0 |
| 20260507063210 | 61 | 264 | 2.0 | 8.0 | 0.00 | 0.00 | 0.00 | 56 | 1009.9 |
| 20260507062708 | 61 | 238 | 3.0 | 8.0 | 0.00 | 0.00 | 0.00 | 56 | 1009.8 |
| 20260507062208 | 61 | 277 | 5.0 | 8.0 | 0.00 | 0.00 | 0.00 | 56 | 1009.8 |
| 20260507061207 | 61 | 244 | 5.0 | 9.0 | 0.00 | 0.00 | 0.00 | 56 | 1009.8 |
| 20260507060715 | 61 | 261 | 5.0 | 9.0 | 0.00 | 0.00 | 0.00 | 56 | 1009.8 |
| 20260507060220 | 61 | 252 | 3.0 | 6.0 | 0.00 | 0.00 | 0.00 | 57 | 1009.7 |
| 20260507055708 | 61 | 221 | 3.0 | 6.0 | 0.00 | 0.00 | 0.00 | 57 | 1009.6 |
| 20260507054714 | 61 | 209 | 2.0 | 4.0 | 0.00 | 0.00 | 0.00 | 57 | 1009.5 |
| 20260507054221 | 61 | 209 | 2.0 | 3.0 | 0.00 | 0.00 | 0.00 | 58 | 1009.4 |
| 20260507053711 | 61 | 221 | 1.0 | 5.0 | 0.00 | 0.00 | 0.00 | 59 | 1009.3 |
| 20260507053207 | 61 | 180 | 1.0 | 5.0 | 0.00 | 0.00 | 0.00 | 59 | 1009.2 |
| 20260507052716 | 61 | 198 | 2.0 | 5.0 | 0.00 | 0.00 | 0.00 | 59 | 1009.2 |
| 20260507052216 | 61 | 204 | 2.0 | 5.0 | 0.00 | 0.00 | 0.00 | 59 | 1009.1 |
| 20260507051711 | 61 | 203 | 1.0 | 4.0 | 0.00 | 0.00 | 0.00 | 57 | 1009.1 |
| 20260507051207 | 61 | 184 | 2.0 | 4.0 | 0.00 | 0.00 | 0.00 | 58 | 1009.1 |
| 20260507050216 | 61 | 215 | 1.0 | 4.0 | 0.00 | 0.00 | 0.00 | 60 | 1008.9 |
| 20260507045719 | 61 | 155 | 1.0 | 5.0 | 0.00 | 0.00 | 0.00 | 60 | 1008.9 |
| 20260507045219 | 61 | 193 | 1.0 | 5.0 | 0.00 | 0.00 | 0.00 | 60 | 1008.8 |
| 20260507044715 | 61 | 155 | 3.0 | 5.0 | 0.00 | 0.00 | 0.00 | 59 | 1008.7 |
| 20260507042715 | 60 | 107 | 1.0 | 9.0 | 0.00 | 0.00 | 0.00 | 58 | 1008.4 |
| 20260507042216 | 60 | 229 | 2.0 | 9.0 | 0.00 | 0.00 | 0.00 | 58 | 1008.3 |
| 20260507041719 | 60 | 344 | 2.0 | 9.0 | 0.00 | 0.00 | 0.00 | 57 | 1008.2 |
| 20260507041206 | 60 | 248 | 3.0 | 8.0 | 0.00 | 0.00 | 0.00 | 58 | 1008.0 |
| 20260507040709 | 60 | 276 | 3.0 | 8.0 | 0.00 | 0.00 | 0.00 | 58 | 1008.0 |
| 20260507035713 | 60 | 258 | 1.0 | 5.0 | 0.00 | 0.00 | 0.00 | 59 | 1007.8 |
| 20260507035209 | 60 | 295 | 2.0 | 5.0 | 0.00 | 0.00 | 0.00 | 60 | 1007.7 |
| 20260507034710 | 60 | 262 | 2.0 | 6.0 | 0.00 | 0.00 | 0.00 | 60 | 1007.8 |
| 20260507032706 | 60 | 257 | 4.0 | 10.0 | 0.00 | 0.00 | 0.00 | 60 | 1007.8 |
| 20260507032210 | 60 | 278 | 5.0 | 10.0 | 0.00 | 0.00 | 0.00 | 60 | 1007.8 |
| 20260507031714 | 60 | 272 | 5.0 | 10.0 | 0.00 | 0.00 | 0.00 | 60 | 1007.8 |
| 20260507031214 | 60 | 304 | 4.0 | 10.0 | 0.00 | 0.00 | 0.00 | 61 | 1007.8 |
| 20260507030214 | 60 | 297 | 4.0 | 10.0 | 0.00 | 0.00 | 0.00 | 62 | 1007.6 |
| 20260507025715 | 60 | 300 | 4.0 | 10.0 | 0.00 | 0.00 | 0.00 | 62 | 1007.5 |
| 20260507025212 | 60 | 267 | 5.0 | 11.0 | 0.00 | 0.00 | 0.00 | 63 | 1007.4 |
| 20260507023713 | 60 | 325 | 5.0 | 11.0 | 0.00 | 0.00 | 0.00 | 63 | 1007.5 |
| 20260507023219 | 60 | 303 | 5.0 | 12.0 | 0.00 | 0.00 | 0.00 | 63 | 1007.5 |
| 20260507022713 | 60 | 331 | 5.0 | 12.0 | 0.00 | 0.00 | 0.00 | 63 | 1007.6 |
| 20260507021716 | 60 | 339 | 5.0 | 9.0 | 0.00 | 0.00 | 0.00 | 63 | 1007.5 |
| 20260507021217 | 60 | 334 | 5.0 | 9.0 | 0.00 | 0.00 | 0.00 | 63 | 1007.4 |
| 20260507020705 | 60 | 327 | 4.0 | 9.0 | 0.00 | 0.00 | 0.00 | 63 | 1007.5 |
| 20260507020218 | 60 | 338 | 4.0 | 12.0 | 0.00 | 0.00 | 0.00 | 63 | 1007.5 |
| 20260507015711 | 60 | 347 | 5.0 | 12.0 | 0.00 | 0.00 | 0.00 | 63 | 1007.5 |
| 20260507015217 | 60 | 344 | 6.0 | 12.0 | 0.00 | 0.00 | 0.00 | 63 | 1007.4 |
| 20260507014710 | 60 | 294 | 7.0 | 12.0 | 0.00 | 0.00 | 0.00 | 63 | 1007.4 |
| 20260507014217 | 60 | 315 | 6.0 | 12.0 | 0.00 | 0.00 | 0.00 | 63 | 1007.4 |
| 20260507013709 | 60 | 345 | 6.0 | 12.0 | 0.00 | 0.00 | 0.00 | 63 | 1007.3 |
| 20260507013211 | 60 | 295 | 4.0 | 12.0 | 0.00 | 0.00 | 0.00 | 63 | 1007.3 |
| 20260507012706 | 60 | 355 | 5.0 | 15.0 | 0.00 | 0.00 | 0.00 | 63 | 1007.2 |
| 20260507012209 | 60 | 311 | 7.0 | 15.0 | 0.00 | 0.00 | 0.00 | 63 | 1007.3 |
| 20260507011210 | 60 | 315 | 7.0 | 14.0 | 0.00 | 0.00 | 0.00 | 63 | 1007.3 |
| 20260507010218 | 61 | 341 | 8.0 | 15.0 | 0.00 | 0.00 | 0.00 | 64 | 1007.1 |
| 20260507005706 | 61 | 320 | 8.0 | 15.0 | 0.00 | 0.00 | 0.00 | 64 | 1007.0 |
| 20260507005212 | 61 | 343 | 8.0 | 14.0 | 0.00 | 0.00 | 0.00 | 64 | 1007.0 |
| 20260507004709 | 61 | 340 | 8.0 | 15.0 | 0.00 | 0.00 | 0.00 | 64 | 1007.0 |
| 20260507004213 | 61 | 338 | 8.0 | 16.0 | 0.00 | 0.00 | 0.00 | 65 | 1006.9 |
| 20260507003712 | 61 | 313 | 8.0 | 16.0 | 0.00 | 0.00 | 0.00 | 65 | 1006.9 |
| 20260507003218 | 61 | 330 | 8.0 | 16.0 | 0.00 | 0.00 | 0.00 | 66 | 1006.9 |
| 20260507002715 | 61 | 323 | 8.0 | 14.0 | 0.00 | 0.00 | 0.00 | 67 | 1006.9 |
| 20260507002212 | 61 | 311 | 7.0 | 14.0 | 0.00 | 0.00 | 0.00 | 68 | 1006.9 |
| 20260507001708 | 61 | 303 | 5.0 | 10.0 | 0.00 | 0.00 | 0.00 | 68 | 1006.8 |
| 20260507001207 | 61 | 303 | 5.0 | 12.0 | 0.00 | 0.00 | 0.00 | 68 | 1006.8 |
| 20260507000709 | 61 | 11 | 7.0 | 12.0 | 0.00 | 0.00 | 0.00 | 68 | 1006.8 |
| 20260507000208 | 61 | 12 | 7.0 | 12.0 | 0.00 | 0.00 | 0.00 | 68 | 1006.8 |
| 20260506235719 | 61 | 13 | 6.0 | 12.0 | 0.00 | 0.00 | 0.00 | 68 | 1006.8 |
| 20260506235217 | 61 | 337 | 4.0 | 12.0 | 0.00 | 0.00 | 0.00 | 68 | 1006.8 |
| 20260506234715 | 61 | 323 | 2.0 | 8.0 | 0.00 | 0.00 | 0.00 | 66 | 1006.7 |
| 20260506234218 | 61 | 15 | 3.0 | 8.0 | 0.00 | 0.00 | 0.00 | 66 | 1006.7 |
| 20260506233709 | 61 | 0 | 3.0 | 8.0 | 0.00 | 0.00 | 0.00 | 66 | 1006.7 |
| 20260506233218 | 61 | 330 | 4.0 | 9.0 | 0.00 | 0.00 | 0.00 | 66 | 1006.6 |
| 20260506232708 | 62 | 30 | 5.0 | 9.0 | 0.00 | 0.00 | 0.00 | 65 | 1006.2 |
| 20260506232215 | 62 | 15 | 4.0 | 7.0 | 0.00 | 0.00 | 0.00 | 65 | 1006.1 |
| 20260506230718 | 62 | 55 | 4.0 | 7.0 | 0.00 | 0.00 | 0.00 | 63 | 1006.1 |
| 20260506230209 | 62 | 49 | 3.0 | 5.0 | 0.00 | 0.00 | 0.00 | 63 | 1006.0 |
| 20260506225709 | 62 | 10 | 2.0 | 5.0 | 0.00 | 0.00 | 0.00 | 62 | 1006.0 |
| 20260506225209 | 62 | 5 | 2.0 | 9.0 | 0.00 | 0.00 | 0.00 | 62 | 1005.9 |
| 20260506224708 | 62 | 355 | 3.0 | 9.0 | 0.00 | 0.00 | 0.00 | 62 | 1005.8 |
| 20260506224210 | 62 | 332 | 3.0 | 9.0 | 0.00 | 0.00 | 0.00 | 62 | 1005.7 |
| 20260506223210 | 62 | 205 | 2.0 | 4.0 | 0.00 | 0.00 | 0.00 | 63 | 1005.4 |
| 20260506222209 | 63 | 180 | 2.0 | 6.0 | 0.00 | 0.00 | 0.00 | 63 | 1005.2 |
| 20260506221719 | 63 | 183 | 2.0 | 9.0 | 0.00 | 0.00 | 0.00 | 63 | 1005.1 |
| 20260506221214 | 63 | 178 | 3.0 | 9.0 | 0.00 | 0.00 | 0.00 | 62 | 1005.1 |
| 20260506220710 | 63 | 212 | 5.0 | 10.0 | 0.00 | 0.00 | 0.00 | 62 | 1005.0 |
| 20260506220214 | 63 | 232 | 6.0 | 10.0 | 0.00 | 0.00 | 0.00 | 62 | 1004.9 |
| 20260506215709 | 63 | 225 | 6.0 | 10.0 | 0.00 | 0.00 | 0.00 | 63 | 1004.8 |
| 20260506215211 | 63 | 225 | 4.0 | 8.0 | 0.00 | 0.00 | 0.00 | 63 | 1004.7 |
| 20260506214718 | 63 | 204 | 3.0 | 8.0 | 0.00 | 0.00 | 0.00 | 63 | 1004.6 |
| 20260506214219 | 63 | 185 | 4.0 | 8.0 | 0.00 | 0.00 | 0.00 | 63 | 1004.6 |
| 20260506213721 | 63 | 186 | 4.0 | 7.0 | 0.00 | 0.00 | 0.00 | 63 | 1004.5 |
| 20260506213218 | 63 | 192 | 4.0 | 11.0 | 0.00 | 0.00 | 0.00 | 63 | 1004.4 |
| 20260506212708 | 63 | 204 | 5.0 | 11.0 | 0.00 | 0.00 | 0.00 | 63 | 1004.2 |
| 20260506212205 | 64 | 160 | 5.0 | 11.0 | 0.00 | 0.00 | 0.00 | 63 | 1004.3 |
| 20260506211711 | 64 | 225 | 5.0 | 10.0 | 0.00 | 0.00 | 0.00 | 62 | 1004.3 |
| 20260506211216 | 64 | 197 | 5.0 | 12.0 | 0.00 | 0.00 | 0.00 | 63 | 1004.3 |
| 20260506210711 | 64 | 165 | 6.0 | 12.0 | 0.00 | 0.00 | 0.00 | 63 | 1004.2 |
| 20260506210216 | 64 | 194 | 6.0 | 12.0 | 0.00 | 0.00 | 0.00 | 63 | 1004.1 |
| 20260506205712 | 64 | 205 | 6.0 | 13.0 | 0.00 | 0.00 | 0.00 | 63 | 1003.9 |
| 20260506205205 | 64 | 219 | 7.0 | 17.0 | 0.00 | 0.00 | 0.00 | 63 | 1004.0 |
| 20260506204713 | 64 | 140 | 7.0 | 17.0 | 0.00 | 0.00 | 0.00 | 63 | 1003.9 |
| 20260506204213 | 64 | 136 | 8.0 | 17.0 | 0.00 | 0.00 | 0.00 | 63 | 1003.7 |
| 20260506203216 | 64 | 140 | 8.0 | 15.0 | 0.00 | 0.00 | 0.00 | 63 | 1003.6 |
| 20260506202718 | 64 | 184 | 8.0 | 19.0 | 0.00 | 0.00 | 0.00 | 63 | 1003.7 |
| 20260506202221 | 64 | 194 | 8.0 | 19.0 | 0.00 | 0.00 | 0.00 | 63 | 1003.6 |
| 20260506201719 | 64 | 211 | 8.0 | 19.0 | 0.00 | 0.00 | 0.00 | 62 | 1003.6 |
| 20260506201216 | 65 | 190 | 8.0 | 20.0 | 0.00 | 0.00 | 0.00 | 62 | 1003.6 |
| 20260506200718 | 65 | 173 | 8.0 | 23.0 | 0.00 | 0.00 | 0.00 | 62 | 1003.5 |
| 20260506200215 | 65 | 180 | 9.0 | 23.0 | 0.00 | 0.00 | 0.00 | 62 | 1003.5 |
| 20260506195216 | 65 | 207 | 10.0 | 27.0 | 0.00 | 0.00 | 0.00 | 62 | 1003.2 |
| 20260506194710 | 65 | 223 | 10.0 | 16.0 | 0.00 | 0.00 | 0.00 | 62 | 1003.0 |
| 20260506194214 | 65 | 163 | 10.0 | 15.0 | 0.00 | 0.00 | 0.00 | 62 | 1003.1 |
| 20260506193705 | 65 | 199 | 8.0 | 19.0 | 0.00 | 0.00 | 0.00 | 62 | 1003.3 |
| 20260506192714 | 65 | 165 | 9.0 | 19.0 | 0.00 | 0.00 | 0.00 | 61 | 1003.4 |
| 20260506192207 | 66 | 165 | 9.0 | 16.0 | 0.00 | 0.00 | 0.00 | 61 | 1003.2 |
| 20260506191714 | 66 | 205 | 7.0 | 16.0 | 0.00 | 0.00 | 0.00 | 61 | 1003.3 |
| 20260506191208 | 66 | 183 | 7.0 | 19.0 | 0.00 | 0.00 | 0.00 | 60 | 1003.4 |
| 20260506190717 | 66 | 183 | 8.0 | 19.0 | 0.00 | 0.00 | 0.00 | 60 | 1003.3 |
| 20260506185705 | 66 | 194 | 10.0 | 25.0 | 0.00 | 0.00 | 0.00 | 59 | 1003.1 |
| 20260506184213 | 67 | 190 | 9.0 | 18.0 | 0.00 | 0.00 | 0.00 | 59 | 1002.7 |
| 20260506182706 | 67 | 205 | 11.0 | 21.0 | 0.00 | 0.00 | 0.00 | 58 | 1002.5 |
| 20260506182206 | 67 | 204 | 10.0 | 21.0 | 0.00 | 0.00 | 0.00 | 58 | 1002.5 |
| 20260506181711 | 67 | 185 | 9.0 | 18.0 | 0.00 | 0.00 | 0.00 | 58 | 1002.7 |
| 20260506181208 | 67 | 202 | 9.0 | 18.0 | 0.00 | 0.00 | 0.00 | 58 | 1002.7 |
| 20260506180719 | 68 | 178 | 10.0 | 18.0 | 0.00 | 0.00 | 0.00 | 58 | 1002.7 |
| 20260506175718 | 68 | 201 | 10.0 | 18.0 | 0.00 | 0.00 | 0.00 | 57 | 1003.0 |
| 20260506175216 | 68 | 177 | 10.0 | 17.0 | 0.00 | 0.00 | 0.00 | 56 | 1003.1 |
| 20260506174708 | 68 | 189 | 8.0 | 18.0 | 0.00 | 0.00 | 0.00 | 56 | 1003.2 |
| 20260506174210 | 69 | 192 | 8.0 | 18.0 | 0.00 | 0.00 | 0.00 | 56 | 1003.4 |
| 20260506173719 | 69 | 154 | 7.0 | 18.0 | 0.00 | 0.00 | 0.00 | 55 | 1003.3 |
| 20260506173212 | 69 | 205 | 7.0 | 14.0 | 0.00 | 0.00 | 0.00 | 55 | 1003.4 |
| 20260506172216 | 69 | 206 | 8.0 | 20.0 | 0.00 | 0.00 | 0.00 | 55 | 1003.3 |
| 20260506171714 | 70 | 162 | 9.0 | 20.0 | 0.00 | 0.00 | 0.00 | 54 | 1003.1 |
| 20260506170706 | 70 | 177 | 10.0 | 23.0 | 0.00 | 0.00 | 0.00 | 53 | 1003.2 |
| 20260506170235 | 70 | 173 | 10.0 | 23.0 | 0.00 | 0.00 | 0.00 | 53 | 1003.2 |
| 20260506165706 | 71 | 208 | 10.0 | 25.0 | 0.00 | 0.00 | 0.00 | 52 | 1003.2 |
| 20260506164715 | 71 | 207 | 10.0 | 25.0 | 0.00 | 0.00 | 0.00 | 51 | 1003.1 |
| 20260506164207 | 71 | 174 | 10.0 | 17.0 | 0.00 | 0.00 | 0.00 | 50 | 1003.2 |
| 20260506163717 | 72 | 175 | 9.0 | 17.0 | 0.00 | 0.00 | 0.00 | 50 | 1003.2 |
| 20260506163216 | 72 | 196 | 9.0 | 23.0 | 0.00 | 0.00 | 0.00 | 50 | 1003.2 |
| 20260506162712 | 72 | 214 | 10.0 | 25.0 | 0.00 | 0.00 | 0.00 | 50 | 1003.1 |
| 20260506162232 | 73 | 182 | 13.0 | 26.0 | 0.00 | 0.00 | 0.00 | 49 | 1003.2 |
| 20260506160235 | 74 | 180 | 12.0 | 23.0 | 0.00 | 0.00 | 0.00 | 47 | 1003.2 |
| 20260506155707 | 74 | 232 | 11.0 | 23.0 | 0.00 | 0.00 | 0.00 | 47 | 1003.2 |
| 20260506155211 | 74 | 196 | 12.0 | 23.0 | 0.00 | 0.00 | 0.00 | 48 | 1003.3 |
| 20260506154209 | 74 | 180 | 10.0 | 19.0 | 0.00 | 0.00 | 0.00 | 48 | 1003.4 |
| 20260506153708 | 74 | 138 | 9.0 | 17.0 | 0.00 | 0.00 | 0.00 | 48 | 1003.5 |
| 20260506153214 | 74 | 188 | 9.0 | 26.0 | 0.00 | 0.00 | 0.00 | 48 | 1003.4 |
| 20260506152211 | 74 | 161 | 10.0 | 26.0 | 0.00 | 0.00 | 0.00 | 48 | 1003.4 |
| 20260506151714 | 74 | 161 | 12.0 | 24.0 | 0.00 | 0.00 | 0.00 | 48 | 1003.4 |
| 20260506151219 | 74 | 205 | 13.0 | 24.0 | 0.00 | 0.00 | 0.00 | 48 | 1003.5 |
| 20260506150714 | 74 | 168 | 12.0 | 26.0 | 0.00 | 0.00 | 0.00 | 48 | 1003.6 |
| 20260506145719 | 74 | 173 | 12.0 | 28.0 | 0.00 | 0.00 | 0.00 | 48 | 1003.6 |
| 20260506144710 | 74 | 199 | 13.0 | 30.0 | 0.00 | 0.00 | 0.00 | 48 | 1003.6 |
| 20260506144211 | 74 | 197 | 14.0 | 31.0 | 0.00 | 0.00 | 0.00 | 47 | 1003.6 |
| 20260506143210 | 76 | 196 | 18.0 | 31.0 | 0.00 | 0.00 | 0.00 | 46 | 1003.6 |
| 20260506142716 | 76 | 187 | 18.0 | 31.0 | 0.00 | 0.00 | 0.00 | 46 | 1003.6 |
| 20260506142209 | 76 | 186 | 15.0 | 27.0 | 0.00 | 0.00 | 0.00 | 45 | 1003.5 |
| 20260506141706 | 77 | 165 | 14.0 | 26.0 | 0.00 | 0.00 | 0.00 | 44 | 1003.5 |
| 20260506141207 | 76 | 194 | 13.0 | 26.0 | 0.00 | 0.00 | 0.00 | 44 | 1003.6 |
| 20260506140715 | 76 | 181 | 11.0 | 25.0 | 0.00 | 0.00 | 0.00 | 44 | 1003.5 |
| 20260506140217 | 76 | 215 | 11.0 | 25.0 | 0.00 | 0.00 | 0.00 | 41 | 1003.6 |
| 20260506135709 | 77 | 217 | 13.0 | 23.0 | 0.00 | 0.00 | 0.00 | 42 | 1003.5 |
| 20260506135219 | 77 | 195 | 13.0 | 23.0 | 0.00 | 0.00 | 0.00 | 42 | 1003.4 |
| 20260506133713 | 78 | 159 | 14.0 | 26.0 | 0.00 | 0.00 | 0.00 | 40 | 1003.4 |
| 20260506133220 | 79 | 177 | 13.0 | 28.0 | 0.00 | 0.00 | 0.00 | 40 | 1003.5 |
| 20260506132711 | 79 | 132 | 13.0 | 28.0 | 0.00 | 0.00 | 0.00 | 39 | 1003.5 |
| 20260506132210 | 79 | 197 | 12.0 | 28.0 | 0.00 | 0.00 | 0.00 | 40 | 1003.6 |
| 20260506131709 | 80 | 198 | 11.0 | 27.0 | 0.00 | 0.00 | 0.00 | 38 | 1003.7 |
| 20260506131214 | 80 | 198 | 12.0 | 28.0 | 0.00 | 0.00 | 0.00 | 39 | 1003.6 |
| 20260506130705 | 80 | 219 | 14.0 | 28.0 | 0.00 | 0.00 | 0.00 | 39 | 1003.7 |
| 20260506130217 | 80 | 200 | 13.0 | 25.0 | 0.00 | 0.00 | 0.00 | 39 | 1003.6 |
| 20260506125713 | 80 | 191 | 11.0 | 25.0 | 0.00 | 0.00 | 0.00 | 39 | 1003.7 |
| 20260506125210 | 79 | 188 | 14.0 | 27.0 | 0.00 | 0.00 | 0.00 | 39 | 1003.7 |